www.pogodaiklimat.ru

Погода и климат >> Архив погоды >> Россия >> Якутия >> Сухана


ПОГОДА в Сухане

  • Прогноз погоды в Сухане
  • Монитор погоды в Сухане

АРХИВ ПОГОДЫ в Сухане

Время (UTC), дата Ветер
(напр.,м/с)
 
Видим.   Явления Облачность Т
(С)
Тd
(С)
f
(%)
Тe
(С)
Тes
(С)
Комфортность P
(гПа)
Po
(гПа)
Тmin
(С)
Tmax
(С)
R
(мм)
R24
(мм)
S
(см)
03 14.05 С 5 50 км 9/8 600 м
[Cb cap Cs]
-1.9 -9.8 55 -8 -7 1016.4 1006.7
06 14.05 С 3 4000 м слаб. ливневой снег 10/10 600 м
[Cb cap]
-2.0 -4.5 83 -7 -7 1017.6 1007.9
09 14.05 С 2 50 км {ливн. осадки} 8/8 600 м
[Cb cap]
-1.8 -5.6 75 -6 -5 1017.2 1007.5
12 14.05 СВ 3 50 км 10/10 1000 м
[Sc]
-0.5 -4.6 74 -5 -5 1017.2 1007.5 -0.5 0.7
15 14.05 СВ 2 50 км 10/10 1000 м
[Sc]
-1.0 -3.6 82 -5 -5 1017.8 1008.1
18 14.05 СВ 2 50 км 10/10 1000 м
[Sc]
-2.4 -3.3 94 -7 -7 1016.8 1007.1
21 14.05 С 3 10 км слаб. снег 10/10 1000 м
[Sc]
-3.3 -4.0 95 -9 -9 1015.8 1005.9
00 15.05 С 1 1000 м ливневой снег 10/10 600 м
[Cb cap]
-7.6 -8.5 93 -10 -10 1016.9 1007.1 -7.6 5 32
03 15.05 СВ 1 2000 м снег {ливн. осадки} 10/0
[As op]
-6.5 -8.1 88 -9 -7 1017.0 1007.1
06 15.05 С 1 10 км слаб. снег 10/0
[As op]
-4.4 -6.4 86 -7 -5 1017.3 1007.4
09 15.05 С 2 50 км в посл. час снег 10/10 600 м
[Cb cap]
-3.0 -6.1 79 -7 -7 1017.7 1007.8
12 15.05 С 5 50 км позёмок {снег} 10/10 1000 м
[Sc]
-3.7 -7.7 74 -10 -10 1018.6 1008.7 -3.0 3
15 15.05 С 5 50 км позёмок 10/10 1000 м
[Sc]
-5.4 -8.3 80 -13 -13 1019.7 1009.8
18 15.05 С 5 50 км позёмок 10/10 1000 м
[Sc]
-6.5 -8.9 83 -14 -14 1020.2 1010.2
21 15.05 С 5 50 км позёмок 10/10 1000 м
[Sc]
-7.6 -9.8 84 -15 -15 1021.0 1011.0
00 16.05 С 5 50 км позёмок 10/10 1000 м
[Sc]
-6.6 -9.0 83 -14 -14 1021.4 1011.4 -7.9 35
03 16.05 С 4 50 км позёмок 10/6 1000 м
[Sc Cs]
-5.0 -9.1 73 -11 -9 1021.4 1011.4
06 16.05 С 4 50 км позёмок 10/0
[Cs]
-3.4 -9.0 65 -9 -5 1021.4 1011.4
09 16.05 С 4 50 км позёмок 8/0
[Cs]
-2.0 -9.5 56 -7 -5 1021.1 1011.3
12 16.05 С 4 50 км позёмок 10/0
[As trans]
-2.1 -9.2 58 -7 -7 1021.2 1011.4 -2.0
15 16.05 С 4 50 км позёмок 10/0
[As trans]
-4.2 -9.2 68 -10 -10 1022.1 1012.1
18 16.05 С 4 50 км позёмок 10/3 1000 м
[Sc As trans]
-6.3 -9.9 76 -13 -13 1022.3 1012.3
21 16.05 С 4 50 км позёмок 8/3 1000 м
[Sc Ac trans Cs]
-8.1 -11.7 75 -15 -14 1023.5 1013.3
00 17.05 С 4 50 км позёмок 8/4 1000 м
[Sc Ac trans]
-7.6 -11.6 73 -14 -13 1023.8 1013.8 -8.3 34
03 17.05 С 4 50 км позёмок 4/0
[Ac trans]
-4.8 -10.1 66 -11 -6 1023.9 1013.9
06 17.05 С 5 50 км позёмок 3/0
[Ac trans]
-2.6 -10.0 57 -9 -5 1023.5 1013.8
09 17.05 С 5 50 км позёмок 3/0
[Ac trans]
-1.2 -9.8 52 -7 -5 1024.0 1014.2
12 17.05 С 4 50 км позёмок 3/0
[Ac trans]
-1.4 -9.2 55 -7 -6 1024.9 1015.1 -1.2
15 17.05 С 2 50 км {метель} 1/0
[Ac trans]
-4.4 -10.4 63 -8 -8 1025.9 1015.9
18 17.05 С 3 50 км {метель} 5/5 1000 м
[Sc]
-7.6 -11.1 76 -13 -13 1026.8 1016.8
21 17.05 С 3 50 км 9/9 1000 м
[Sc]
-7.1 -10.9 74 -13 -13 1027.0 1017.0
00 18.05 С 3 50 км 3/3 600 м
[Cu hum]
-6.4 -10.9 70 -12 -9 1027.1 1017.1 -7.8 32
03 18.05 С 3 50 км 4/4 600 м
[Cu Sc]
-4.2 -11.1 59 -9 -4 1026.7 1016.7
06 18.05 С 3 50 км 3/0
[Ci fib]
-1.8 -9.7 55 -6 +1 1026.1 1016.3
09 18.05 С 2 50 км 1/0
[Ci fib]
0.0 -9.4 49 -3 +1 1025.4 1015.6
12 18.05 С 2 50 км ясно -1.6 -9.8 54 -5 -4 1025.7 1015.9 -0.9
15 18.05 С 2 50 км 1/0
[Ci fib]
-5.0 -11.8 59 -9 -9 1025.9 1015.9
18 18.05 С 2 50 км 1/0
[Ci fib]
-8.8 -12.6 74 -13 -13 1026.1 1015.9
21 18.05 С 1 50 км 3/0
[Ci fib]
-9.7 -12.8 78 -12 -11 1025.8 1015.6
00 19.05 С 1 50 км 3/0
[Ci fib]
-7.1 -10.9 74 -9 -3 1023.8 1013.8 -9.7 32
03 19.05 С 1 50 км ясно -4.2 -10.1 63 -6 +5 1023.8 1013.8
06 19.05 С 1 50 км 3/0
[Ci fib]
-1.4 -9.0 56 -3 +7 1022.0 1012.2
09 19.05 С 1 50 км 5/0
[Ci fib]
+0.1 -9.3 49 -1 +3 1021.1 1011.3
12 19.05 С 1 50 км 3/0
[Cs]
+0.5 -9.7 46 -1 0 1019.9 1010.1 +0.5
15 19.05 С 1 50 км 3/0
[Cs]
-2.1 -9.2 58 -4 -4 1018.7 1009.0
18 19.05 С 1 50 км 3/0
[Ac cast Ci fib]
-9.7 -13.3 75 -12 -12 1018.4 1008.3
21 19.05 В 1 50 км 8/0
[Cs]
-9.4 -14.0 69 -12 -10 1017.9 1007.8
00 20.05 Ю 1 50 км 9/0
[Cs]
-3.4 -9.9 61 -5 0 1016.6 1006.7 -9.7 30
03 20.05 СВ 1 50 км 9/3 600 м
[Cu hum Ac trans Cc]
+2.1 -8.0 47 +1 +6 1015.2 1005.5
06 20.05 ЮЗ 1 50 км 8/4 600 м
[Cu med, cong Ac trans Cs]
+4.0 -12.0 30 +4 +8 1013.9 1004.3
09 20.05 СЗ 1 50 км 8/3 600 м
[Cu med, cong As trans Cs]
+4.6 -11.4 30 +4 +7 1013.0 1003.4
12 20.05 С 1 50 км 8/0
[Ac As Cs]
+4.8 -10.9 31 +5 +5 1013.0 1003.4 +4.8
15 20.05 С 1 50 км 3/0
[Ac trans Cs]
+1.4 -11.3 38 +1 +1 1013.0 1003.3
18 20.05 С 1 50 км ясно -6.6 -12.2 64 -9 -9 1013.4 1003.5
21 20.05 С 1 50 км ясно -5.3 -11.3 63 -7 -6 1012.8 1002.9
00 21.05 штиль 0 50 км 3/0
[Ci fib]
+3.0 -7.1 47 +3 +10 1011.1 1001.5 -6.8 29

 

Местоположение метеостанции Сухана (Якутия, Россия): широта 68.62 долгота 118.30 высота над уровнем моря 77 м.

В архиве по умолчанию представлена погода в Сухане за последнюю неделю. Архивные данные за месяц целиком и за предыдущие месяцы, начиная с января 2011 года, Вы можете получить, выбрав интересующий диапазон дат из раскрывающегося списка и нажав кнопку "Ввод!".


*Определитесь, кто Вы:
робот инопланетянин человек

Внимание! Время в таблицах - всемирное. Для получения местного времени необходимо прибавить поправку, которая равна 9 ч.

Смотрите также архив погоды в соседних городах и на ближайших метеорологических станциях:

Погода в Джарджане (Якутия, Россия) (231 км)
Погода в Оленеке (Якутия, Россия) (240 км)
Погода в Джалинде (Якутия, Россия) (241 км)
Погода в Эйке (Якутия, Россия) (291 км)
Погода в Жиганске (Якутия, Россия) (294 км)
Погода в Шелагонцах (Якутия, Россия) (316 км)
Погода в Полярном (Якутия, Россия) (326 км)
Погода в Саскылахе (Якутия, Россия) (406 км)
Погода в Тюмяти (Якутия, Россия) (415 км)
Погода в Айхале (Якутия, Россия) (419 км)

Пояснения к столбцам:

Ветер - указаны скорость ветра в м/с - средняя за 10 мин, порывы в срок и между сроками (в фигурных скобках) и направление, откуда дует ветер: С - северный, СВ - северо-восточный, В - восточный, ЮВ - юго-восточный, Ю - южный, ЮЗ - юго-западный, З - западный, СЗ - северо-западный.
Видимость - горизонтальная дальность видимости в метрах или километрах. При видимости от 1 до 10 км при отсутствии осадков обычно наблюдается дымка, при ухудшении видимости до 1 км и менее - туман. В сухую погоду видимость может ухудшаться дымом, пылью или мглою.
Явления - указаны атмосферные явления, наблюдавшиеся в срок или в последний час перед сроком; фигурными скобками обозначены явления, наблюдавшиеся между сроками (за 1-3 часа до срока); квадратными скобками обозначены град или гололедные отложения с указанием их диаметра в мм.
Облачность - указаны через наклонную черту общая и нижняя облачность в баллах и высота нижней границы облаков в метрах; квадратными скобками обозначены формы облаков: Ci - перистые, Cs - перисто-слоистые, Cc - перисто-кучевые, Ac - высококучевые, As - высокослоистые, Sc - слоисто-кучевые, Ns - слоисто-дождевые, Cu - кучевые, Cb - кучево-дождевые. Подробнее классификацию облаков см. в Атласе облаков (PDF).
T - Температура воздуха - температура, измеренная на высоте 2 м над землей.
Td - Температура точки росы - температура, при понижении до которой содержащийся в воздухе водяной пар достигнет насыщения.
f - Относительная влажность воздуха - влажноcть воздуха, измеренная на высоте 2 м над землей.
Te - Эффективная температура - температура, которую ощущает одетый по сезону человек в тени. Характеристика душности погоды. При расчете учитывается влияние влажности воздуха и скорости ветра на теплоощущения человека.
Tes - Эффективная температура на солнце - температура, которую ощущает человек, с поправкой на солнечный нагрев. Характеристика знойности погоды. Зависит от высоты солнца над горизонтом, облачности и скорости ветра. Ночью, в пасмурную погоду, а также при ветре 12 м/с и более поправка равна нулю.
P - Атмосферное давление - приведенное к уровню моря атмосферное давление.
Po - Атмосферное давление - измеренное на уровне метеостанции атмосферное давление.
Tmin - Минимальная температура - минимум температуры воздуха на высоте 2 м над землей.
Tmax - Максимальная температура - максимум температуры воздуха на высоте 2 м над землей.
R - Количество осадков - Количество выпавших осадков за период времени, мм. При наведении курсора мыши на число - период времени, за который выпало указанное количество осадков.
R24 - Количество осадков - Количество выпавших осадков за 24 часа, мм.
S - Снежный покров - Высота снежного покрова, см. При наведении курсора мыши на число - состояние снежного покрова и степень покрытия местности в баллах.